This is the latest recevied weather packets stored in our database for station/object KM4NDN. If no packets are shown the sender has not sent any weather packets the latest 10 day(s).
| Time | Temp. | Humidity | Pressure | Rain* | Wind** | Luminosity | Snow |
|---|---|---|---|---|---|---|---|
| 1777480438 | 10.56° C | 89% | 1008.9 hPa | 0 mm | - | 141 W/m² | - |
| 1777480134 | 10.56° C | 89% | 1008.9 hPa | 0 mm | - | 146 W/m² | - |
| 1777479830 | 10.56° C | 89% | 1008.9 hPa | 0 mm | - | 156 W/m² | - |
| 1777479528 | 10.56° C | 89% | 1008.9 hPa | 0 mm | - | 197 W/m² | - |
| 1777479225 | 10.56° C | 89% | 1009 hPa | 0 mm | - | 126 W/m² | - |
| 1777478921 | 10.56° C | 90% | 1008.9 hPa | 0 mm | - | 117 W/m² | - |
| 1777478618 | 10.56° C | 90% | 1008.9 hPa | 0 mm | - | 109 W/m² | - |
| 1777478315 | 10.56° C | 91% | 1009 hPa | 0 mm | - | 104 W/m² | - |
| 1777478012 | 10.56° C | 90% | 1008.8 hPa | 0 mm | - | 105 W/m² | - |
| 1777477706 | 10.56° C | 90% | 1009.1 hPa | 0 mm | - | 105 W/m² | - |
| 1777477404 | 10.56° C | 90% | 1008.8 hPa | 0 mm | - | 106 W/m² | - |
| 1777477100 | 10.56° C | 91% | 1009.3 hPa | 0 mm | - | 80 W/m² | - |
| 1777476798 | 10.56° C | 91% | 1009.4 hPa | 0 mm | - | 111 W/m² | - |
| 1777476494 | 10.56° C | 91% | 1009.3 hPa | 0 mm | - | 103 W/m² | - |
| 1777476191 | 10.56° C | 91% | 1009 hPa | 1.78 mm | - | 126 W/m² | - |
| 1777475887 | 10.56° C | 91% | 1009 hPa | 3.05 mm | - | 170 W/m² | - |
| 1777475583 | 10.56° C | 91% | 1009 hPa | 3.05 mm | - | 212 W/m² | - |
| 1777475279 | 10.56° C | 91% | 1009.1 hPa | 1.78 mm | - | 99 W/m² | - |
| 1777474975 | 10.56° C | 91% | 1009.5 hPa | 0 mm | - | 59 W/m² | - |
| 1777474671 | 10.56° C | 92% | 1009.6 hPa | 0 mm | - | 45 W/m² | - |
| 1777474368 | 10.56° C | 92% | 1009.6 hPa | 0 mm | - | 53 W/m² | - |
| 1777474063 | 10.56° C | 92% | 1009.3 hPa | 0 mm | - | 82 W/m² | - |
| 1777473762 | 10.56° C | 92% | 1009.2 hPa | 0 mm | - | 73 W/m² | - |
| 1777473458 | 10.56° C | 92% | 1008.8 hPa | 0 mm | - | 110 W/m² | - |
| 1777473154 | 10.56° C | 93% | 1009 hPa | 0 mm | - | 80 W/m² | - |
* Rain latest hour (hover to see other rain measurements)
** Current wind speed in m/s (hover to see current wind gust speed)